HAZ271 RJCC-RCTP

Flight info

Callsign HAZ271
Flight time N/A
Altitude 36000
Route DALBI Y120 TAPPI Y12 ARIKA Y14 MIHOU Y45 HKC Y50 IGMON A1 DRAKE DRAKE1A
Aircraft B77W/H-SDE1E2E3FGHIJ2J3J4J5M1RWXY/LB1D1

Departure

Time 2026-05-04 05:14
Airport New Chitose Airport (RJCC)

Arrival

Time N/A
Airport Taiwan Taoyuan International Airport (RCTP)
Time Latitude Longitude Altitude Speed Heading
2026-05-04 05:00 42.78676 141.67473 91 ft 0 kts 84°
2026-05-04 05:06 42.78619 141.67393 93 ft 1 kts 353°
2026-05-04 05:09 42.79190 141.67312 87 ft 14 kts 29°
2026-05-04 05:09 42.79230 141.67425 88 ft 14 kts 82°
2026-05-04 05:10 42.79243 141.67553 91 ft 14 kts 83°
2026-05-04 05:10 42.79254 141.67682 95 ft 14 kts 83°
2026-05-04 05:10 42.79266 141.67810 91 ft 14 kts 83°
2026-05-04 05:10 42.79266 141.67939 93 ft 14 kts 95°
2026-05-04 05:11 42.79246 141.68078 95 ft 16 kts 107°
2026-05-04 05:11 42.79200 141.68226 91 ft 18 kts 117°
2026-05-04 05:11 42.79125 141.68369 95 ft 19 kts 131°
2026-05-04 05:11 42.79045 141.68462 95 ft 14 kts 145°
2026-05-04 05:12 42.78958 141.68530 94 ft 14 kts 155°
2026-05-04 05:12 42.78862 141.68575 95 ft 13 kts 162°
2026-05-04 05:12 42.78825 141.68618 94 ft 8 kts 113°
2026-05-04 05:12 42.78818 141.68707 94 ft 11 kts 84°
2026-05-04 05:13 42.78816 141.68808 96 ft 8 kts 120°
2026-05-04 05:13 42.78760 141.68828 97 ft 10 kts 173°
2026-05-04 05:13 42.78744 141.68831 97 ft 0 kts 172°
2026-05-04 05:13 42.78604 141.68856 93 ft 55 kts 173°
2026-05-04 05:14 42.77987 141.68963 89 ft 122 kts 173°
2026-05-04 05:14 42.76954 141.69143 95 ft 173 kts 173°
2026-05-04 05:14 42.75793 141.69376 738 ft 170 kts 170°
2026-05-04 05:14 42.74612 141.69676 1378 ft 175 kts 169°
2026-05-04 05:15 42.73418 141.69898 2025 ft 175 kts 175°
2026-05-04 05:15 42.72119 141.70116 2240 ft 201 kts 174°
2026-05-04 05:15 42.70647 141.70394 2482 ft 226 kts 173°
2026-05-04 05:15 42.69027 141.70719 2931 ft 242 kts 173°
2026-05-04 05:16 42.67322 141.71061 3562 ft 251 kts 174°
2026-05-04 05:16 42.65585 141.71369 4294 ft 251 kts 182°
2026-05-04 05:16 42.63909 141.70802 4983 ft 250 kts 213°
2026-05-04 05:16 42.62651 141.69244 5910 ft 244 kts 233°
2026-05-04 05:17 42.61898 141.67191 6705 ft 246 kts 254°
2026-05-04 05:17 42.61573 141.64889 7329 ft 252 kts 257°
2026-05-04 05:17 42.61275 141.62533 8022 ft 256 kts 257°
2026-05-04 05:17 42.60974 141.60146 8779 ft 257 kts 257°
2026-05-04 05:18 42.60672 141.57743 9490 ft 260 kts 257°
2026-05-04 05:18 42.60363 141.55331 10309 ft 259 kts 256°
2026-05-04 05:18 42.60038 141.52851 10766 ft 277 kts 256°
2026-05-04 05:18 42.59681 141.50156 10969 ft 303 kts 256°
2026-05-04 05:19 42.59291 141.47220 11215 ft 327 kts 256°
2026-05-04 05:19 42.58885 141.44137 11916 ft 336 kts 256°
2026-05-04 05:19 42.58473 141.40997 12866 ft 339 kts 256°
2026-05-04 05:19 42.58053 141.37843 13842 ft 341 kts 255°
2026-05-04 05:20 42.57629 141.34665 14753 ft 344 kts 255°
2026-05-04 05:20 42.57201 141.31459 15601 ft 348 kts 255°
2026-05-04 05:20 42.56764 141.28229 16407 ft 351 kts 252°
2026-05-04 05:20 42.56028 141.25109 17186 ft 345 kts 242°
2026-05-04 05:21 42.55014 141.22123 17934 ft 351 kts 241°
2026-05-04 05:21 42.53998 141.19103 18906 ft 352 kts 241°
2026-05-04 05:21 42.52974 141.16088 19768 ft 351 kts 240°
2026-05-04 05:21 42.51966 141.13051 20367 ft 355 kts 242°
2026-05-04 05:22 42.51017 141.09916 20886 ft 360 kts 243°
2026-05-04 05:22 42.49805 141.07008 21397 ft 355 kts 229°
2026-05-04 05:22 42.48083 141.04609 22088 ft 356 kts 224°
2026-05-04 05:22 42.46305 141.02279 22859 ft 355 kts 224°
2026-05-04 05:23 42.44547 140.99948 23486 ft 357 kts 225°
2026-05-04 05:23 42.42779 140.97567 24044 ft 360 kts 224°
2026-05-04 05:23 42.40999 140.95191 24725 ft 359 kts 224°
2026-05-04 05:23 42.39208 140.92814 25301 ft 361 kts 224°
2026-05-04 05:24 42.37415 140.90431 25827 ft 363 kts 224°
2026-05-04 05:24 42.35607 140.88023 26296 ft 366 kts 224°
2026-05-04 05:24 42.33793 140.85611 26811 ft 367 kts 224°
2026-05-04 05:24 42.31973 140.83190 27314 ft 367 kts 224°
2026-05-04 05:25 42.30151 140.80767 27776 ft 368 kts 224°
2026-05-04 05:25 42.28342 140.78366 28194 ft 370 kts 224°
2026-05-04 05:25 42.26481 140.75898 28593 ft 371 kts 224°
2026-05-04 05:25 42.24635 140.73450 28951 ft 373 kts 223°
2026-05-04 05:26 42.22783 140.70997 29369 ft 372 kts 223°
2026-05-04 05:26 42.20940 140.68558 29880 ft 369 kts 223°
2026-05-04 05:26 42.19114 140.66143 30417 ft 366 kts 223°
2026-05-04 05:26 42.17320 140.63775 30872 ft 365 kts 223°
2026-05-04 05:27 42.15514 140.61390 31314 ft 363 kts 223°
2026-05-04 05:28 42.00760 140.48699 33569 ft 372 kts 204°
2026-05-04 05:29 41.98257 140.47776 33776 ft 373 kts 203°
2026-05-04 05:29 41.95751 140.46852 33985 ft 374 kts 204°
2026-05-04 05:29 41.93246 140.45918 34243 ft 373 kts 204°
2026-05-04 05:29 41.90758 140.44992 34448 ft 374 kts 204°
2026-05-04 05:31 41.73923 140.38701 35385 ft 378 kts 204°
2026-05-04 05:31 41.71395 140.37764 35387 ft 375 kts 204°
2026-05-04 05:32 41.66441 140.35940 35395 ft 372 kts 204°
2026-05-04 05:33 41.58972 140.33162 35403 ft 371 kts 204°
2026-05-04 05:33 41.53992 140.31315 35411 ft 372 kts 204°
2026-05-04 05:34 41.48980 140.29465 35409 ft 376 kts 204°